Wind_Speed
58 57 57 56 56 56 55 55 54 55 55 55 54 54 54 54 53 52 52 51 51 50 50 49 48 48 47 47 47 47 48 47 46 44 43 41 40 40 41 41 41 41 41 42 43 43 43 43 42 42 42 42 42 42 43 44 44 45 46 48 49 50 51 51 50 49 50 50 52 53 54 55 55 54 55 57 60 62 64 65 66 66 67 67 67
58 58 57 57 57 56 55 54 53 53 53 52 51 52 51 51 50 49 49 49 48 47 46 45 45 45 45 45 46 46 45 44 43 42 40 39 38 39 40 40 39 40 41 42 43 43 43 42 41 41 41 40 41 42 43 44 45 46 48 49 50 51 52 52 51 51 51 53 54 54 54 54 53 53 56 59 62 64 66 67 68 68 69 68 67
56 56 56 55 54 53 51 50 50 49 48 47 47 47 47 47 46 46 45 45 43 43 42 42 42 42 43 43 43 43 42 42 41 39 38 38 38 38 38 38 38 40 41 41 42 42 41 40 40 40 40 40 41 43 44 45 46 48 49 50 51 51 52 52 53 54 54 55 55 55 54 53 52 54 59 61 63 65 67 69 70 70 70 69 68
52 52 51 51 49 48 47 46 45 44 44 43 44 44 43 43 42 42 42 41 40 40 40 40 40 40 41 41 41 41 40 40 38 37 37 37 38 37 37 37 38 38 39 40 41 41 40 39 39 40 41 42 43 44 45 46 47 48 49 50 51 51 51 52 54 56 57 56 56 55 54 52 53 57 61 63 65 67 69 70 71 72 71 70 68
47 47 47 46 45 44 43 41 41 41 41 41 41 41 40 40 40 40 39 39 39 39 39 39 39 39 40 41 40 40 39 38 37 37 37 37 37 36 36 36 36 36 36 38 39 39 39 40 41 41 42 43 44 44 46 47 47 48 48 49 49 50 51 52 54 55 56 56 57 56 54 52 53 58 62 65 67 70 71 72 72 72 72 71 69
43 44 44 43 42 40 39 40 40 40 40 39 39 38 38 38 38 38 39 38 38 37 37 37 38 39 40 40 40 39 38 37 37 37 37 37 35 35 34 33 32 33 34 36 38 39 39 40 41 42 42 42 43 44 45 47 47 48 48 48 49 49 51 53 54 55 55 56 57 56 54 52 54 59 64 67 69 72 73 74 73 73 72 71 67
42 42 42 40 39 38 39 40 39 38 38 37 37 36 36 37 37 37 37 36 35 35 36 36 37 38 39 39 38 38 38 38 38 38 36 35 34 33 31 29 29 31 33 35 37 38 39 40 41 41 41 41 42 43 45 47 48 47 47 48 48 49 51 53 54 54 54 55 56 55 54 54 57 62 66 68 70 73 75 75 74 73 73 70 66
41 41 39 38 37 38 39 39 37 37 36 35 35 35 36 36 36 35 34 33 33 34 35 36 37 38 38 38 38 38 38 38 38 36 34 33 33 31 28 27 28 30 33 36 38 38 39 40 40 41 41 41 43 45 46 47 48 47 47 47 48 50 52 54 54 54 54 54 55 55 55 57 60 63 67 69 72 74 76 76 74 73 73 70 65
39 39 37 37 38 39 38 37 36 35 34 34 34 35 35 34 33 32 32 32 32 33 35 37 38 38 38 39 39 38 38 37 36 34 33 32 31 29 27 27 28 31 35 38 38 39 40 40 40 41 42 43 45 47 48 48 48 47 47 48 50 52 54 55 55 55 55 55 56 57 58 59 62 65 68 70 73 75 76 76 75 74 72 68 65
38 38 38 38 38 37 36 35 35 34 33 33 34 34 33 32 31 31 31 31 32 34 36 37 37 38 38 38 38 37 36 35 34 33 32 31 30 30 28 27 28 32 36 38 38 39 41 41 40 41 43 45 46 48 48 48 49 48 48 49 52 54 56 57 57 57 56 56 57 58 59 61 64 66 69 71 74 76 77 76 75 74 71 67 64
38 38 39 38 36 35 35 34 34 33 33 33 33 33 32 30 30 30 30 31 33 34 36 37 37 38 38 37 36 35 34 34 33 32 31 30 30 30 29 28 30 33 36 37 38 40 42 41 41 42 43 44 45 46 47 48 49 49 49 51 53 56 58 59 59 59 58 58 59 60 61 62 65 68 70 72 75 76 76 76 75 73 70 67 65
39 39 38 36 35 35 34 33 32 32 32 33 33 32 31 30 29 30 31 31 33 34 36 37 38 38 37 36 35 33 32 32 32 31 30 30 30 30 30 30 31 34 37 38 38 41 43 43 43 42 43 44 45 45 46 48 50 50 50 52 54 57 59 60 61 61 61 62 62 63 64 65 67 70 73 74 75 76 76 76 74 72 70 68 66
40 39 37 35 35 35 33 32 32 32 32 33 33 32 30 30 30 30 31 32 34 36 37 37 38 37 35 34 33 32 31 31 32 32 32 30 29 29 31 32 34 36 39 40 40 42 44 44 43 43 43 44 46 46 47 48 50 50 50 52 54 56 59 60 61 62 63 64 65 65 67 68 70 73 74 74 74 75 76 75 73 71 70 67 66
40 39 37 35 35 34 33 32 32 33 33 33 33 32 30 30 30 31 32 33 34 36 37 38 38 36 34 33 33 32 31 31 33 33 32 30 29 30 33 35 37 39 41 41 41 42 44 44 43 43 43 44 47 49 49 49 49 48 49 51 53 55 57 59 60 62 63 65 66 67 69 70 71 73 75 75 74 75 75 74 72 71 69 66 65
40 39 38 37 36 36 35 34 33 33 33 33 33 32 30 30 30 32 33 34 35 37 38 39 38 36 34 34 34 32 30 30 31 32 31 30 30 33 36 38 39 41 43 42 41 42 45 44 43 43 44 46 48 49 48 47 46 45 47 48 50 52 55 56 58 60 62 64 66 67 69 70 72 73 74 74 74 75 74 73 72 71 68 64 64
42 41 40 39 38 38 37 35 34 33 34 34 34 33 31 31 31 33 34 35 36 37 39 39 38 37 36 35 33 31 29 29 29 31 32 32 34 36 38 39 40 43 44 42 41 43 45 43 42 44 45 47 47 46 45 43 42 43 45 47 49 51 53 55 57 59 61 63 64 66 67 69 71 72 73 73 74 74 73 72 73 71 67 64 63
44 43 42 41 40 39 38 36 34 34 34 34 35 34 33 32 33 34 36 37 37 38 39 39 39 38 37 35 33 31 30 31 32 34 36 37 38 38 38 39 41 44 44 42 42 44 44 41 41 43 45 45 45 43 42 41 41 44 46 48 50 52 54 56 58 60 62 64 65 66 67 68 70 71 72 73 73 74 73 72 73 70 65 62 63
46 45 43 42 41 40 38 36 35 34 34 35 36 36 34 34 35 35 37 38 39 40 40 40 40 38 37 35 33 32 33 34 35 38 40 41 41 39 38 41 45 47 46 45 45 45 42 40 41 43 44 44 43 41 41 41 43 46 49 51 53 55 56 58 61 63 65 67 68 68 69 70 71 72 72 73 73 73 72 73 73 69 63 61 62
48 45 43 42 42 41 39 37 35 35 35 36 37 37 36 35 36 37 38 39 40 41 42 41 40 38 37 37 36 35 35 35 36 40 42 43 42 41 42 45 49 51 50 47 46 44 42 41 43 45 46 45 43 41 41 43 46 50 53 55 57 58 59 61 64 67 69 70 71 71 71 72 72 72 72 72 72 72 72 73 72 67 61 59 61
47 45 44 44 44 43 41 39 37 37 37 38 38 37 36 36 37 38 39 40 40 42 42 42 41 39 39 39 38 37 35 36 38 40 42 43 42 42 44 47 50 54 52 47 46 44 43 44 46 47 48 47 44 42 43 46 50 54 56 58 59 61 62 64 67 71 73 75 75 74 74 74 73 72 72 71 70 71 72 73 71 65 59 58 61
50 48 48 48 47 46 43 41 39 38 38 37 37 38 37 36 36 38 39 39 40 41 42 41 41 41 40 40 39 38 36 37 38 38 39 41 41 43 45 46 49 52 51 48 48 46 46 47 48 48 49 48 46 44 46 50 54 57 59 61 62 63 64 67 70 73 76 78 78 78 77 76 74 73 72 70 70 71 73 73 69 62 57 58 60
53 51 51 50 49 48 45 42 40 41 41 41 41 41 40 38 39 41 41 40 39 38 39 39 40 41 41 39 37 38 39 39 38 37 38 40 41 42 43 43 45 48 49 49 49 47 46 47 48 49 50 50 48 47 49 52 56 59 62 64 65 66 66 68 71 75 78 81 81 81 80 78 75 73 71 69 70 72 73 72 67 59 56 57 60
55 54 53 52 52 50 47 43 43 45 47 48 46 44 43 43 44 45 43 41 40 38 35 36 39 41 41 38 37 40 42 41 38 38 39 38 39 41 43 43 45 47 49 50 49 47 47 48 49 50 51 51 49 50 52 55 58 62 65 67 68 67 67 69 72 76 80 82 83 84 83 79 75 73 71 70 71 72 71 69 64 57 55 57 59
57 56 56 55 55 53 49 46 46 47 48 48 47 46 45 45 45 45 44 44 45 42 37 35 37 38 38 38 39 40 41 40 38 39 39 37 38 41 44 46 47 49 51 51 49 48 49 49 50 52 52 51 51 52 55 58 61 65 68 69 69 68 69 70 73 77 81 83 85 86 84 79 76 74 72 72 71 71 70 66 60 55 54 56 58
60 60 60 58 56 54 51 49 49 50 48 48 48 49 49 48 47 47 46 45 47 47 42 38 37 37 38 40 41 41 40 40 40 41 41 40 40 42 46 49 51 52 52 51 51 51 51 51 52 53 52 52 53 55 58 61 64 67 69 69 69 69 71 73 76 79 82 85 86 87 84 80 77 75 73 72 71 69 67 62 57 54 54 56 58
63 62 61 59 57 55 53 52 52 52 52 50 49 49 50 50 50 49 48 48 49 50 50 46 42 40 40 41 43 44 45 45 46 47 47 45 43 45 48 51 52 51 52 53 53 53 53 53 54 54 53 54 56 58 60 63 66 68 69 69 70 72 73 75 78 80 83 86 88 88 84 80 77 75 73 71 69 66 63 59 54 53 54 56 58
65 63 61 59 58 57 57 55 54 53 54 53 50 49 49 50 50 51 51 52 52 53 53 52 50 49 49 47 46 48 51 52 51 49 46 44 45 47 50 51 51 52 54 56 56 55 55 55 55 55 56 56 57 59 62 64 67 69 70 72 74 74 75 77 79 82 84 87 89 88 84 80 77 74 72 70 66 62 59 56 53 52 54 56 58
64 63 62 60 60 60 60 58 55 53 53 53 52 50 50 50 51 52 52 53 54 55 56 55 53 53 52 49 47 47 49 50 49 45 43 45 48 50 51 52 54 56 58 58 57 56 56 56 56 58 58 58 58 61 63 66 68 70 72 75 76 76 77 78 80 83 86 88 89 88 84 80 76 73 70 67 62 58 56 53 52 53 54 55 58
65 64 63 62 62 62 62 59 55 53 53 54 53 51 51 52 53 53 53 53 54 55 55 54 52 52 52 51 49 48 48 48 48 48 47 48 51 50 51 54 57 59 59 59 58 57 57 58 59 60 60 59 60 62 65 67 70 72 75 76 77 77 78 79 81 84 86 88 89 88 84 79 75 72 68 63 58 55 53 52 52 53 54 56 58
66 65 64 64 63 62 62 59 56 53 54 55 55 53 53 53 54 54 54 54 54 54 53 50 50 52 55 55 53 54 56 56 56 55 52 51 53 54 57 59 60 60 60 60 59 59 59 60 61 61 60 60 61 64 66 69 72 74 75 76 76 77 78 80 82 85 87 89 90 88 84 79 74 70 66 60 56 53 52 52 53 54 54 56 58
66 65 64 64 62 61 60 57 53 51 53 55 55 54 53 53 54 55 54 52 50 51 52 51 51 56 60 60 59 61 63 63 61 60 58 58 60 61 62 61 60 60 60 60 60 60 61 61 62 62 61 61 63 66 69 72 74 74 74 74 76 77 79 80 83 86 88 90 90 88 84 78 74 69 64 58 55 52 51 52 54 55 55 57 58
67 66 65 64 62 62 61 57 52 52 55 56 54 52 52 52 54 55 55 52 51 53 56 57 58 61 63 62 62 63 63 62 62 61 61 62 63 63 61 60 61 61 60 60 60 61 62 63 63 63 62 63 66 69 71 73 74 73 73 75 77 78 80 82 85 87 89 90 91 88 84 78 73 68 63 58 55 53 51 52 54 55 56 57 58
68 67 66 65 64 63 62 60 58 58 59 57 53 52 52 53 55 56 54 53 54 57 60 62 62 62 62 62 61 60 61 62 64 63 63 63 63 62 61 61 62 62 63 63 62 63 64 64 64 64 64 66 68 71 72 73 73 72 73 76 78 79 81 84 87 88 90 91 91 88 83 78 73 68 62 58 55 53 52 52 54 56 57 58 59
69 69 67 66 65 64 64 63 61 61 59 56 54 54 53 52 53 53 53 54 55 58 60 62 62 62 62 63 63 62 64 65 65 64 63 62 63 63 62 63 64 65 66 65 65 66 66 65 65 66 67 68 70 72 72 72 72 73 75 77 78 80 83 86 88 90 91 92 91 88 82 77 73 68 62 59 56 54 52 52 54 56 58 58 59
70 69 69 68 67 66 65 64 62 60 56 54 55 55 51 47 47 50 52 54 57 59 60 61 61 62 63 64 64 64 65 65 63 62 61 61 62 63 64 65 66 67 68 68 68 69 68 66 66 68 69 70 71 72 72 71 72 75 76 77 79 82 85 88 90 91 92 92 91 87 81 76 72 67 63 59 57 55 53 53 54 57 58 58 58
70 70 69 69 67 66 65 63 60 57 55 54 55 54 50 47 47 50 53 53 53 55 56 55 55 56 58 59 61 62 62 62 61 61 62 63 65 66 67 68 68 69 69 70 69 68 68 68 68 69 70 71 71 71 72 72 74 76 77 79 82 85 88 90 91 92 93 93 91 87 81 75 71 67 63 60 58 56 55 54 55 56 58 58 58
71 70 70 69 67 65 63 61 57 54 53 54 53 51 48 47 48 51 53 53 52 52 52 53 54 55 56 57 59 60 61 61 63 64 66 67 68 69 70 70 71 71 71 70 69 69 69 69 70 70 71 71 71 72 73 74 75 77 80 83 85 88 90 91 92 93 93 93 91 86 80 75 70 67 63 61 59 57 55 55 55 57 57 57 56
71 71 69 68 66 64 61 58 54 52 52 52 51 49 47 47 49 52 55 56 56 56 56 57 58 59 60 61 61 61 61 62 64 66 67 68 70 71 72 72 72 72 72 71 70 70 70 70 71 71 72 72 72 73 75 76 78 81 84 86 88 90 91 92 93 93 93 93 90 85 78 73 69 66 63 61 59 57 56 55 56 57 57 56 55
70 69 68 66 63 60 57 55 54 52 51 48 48 49 50 50 52 55 59 60 60 60 61 62 63 64 66 67 65 63 63 64 66 68 70 71 72 73 73 73 73 72 71 71 70 70 70 70 71 72 73 73 74 75 78 80 82 84 86 88 89 91 92 92 93 93 93 92 89 83 76 71 67 64 62 60 59 57 56 56 56 56 56 55 54
66 65 64 62 60 58 58 57 56 55 52 49 47 48 51 52 53 55 57 58 59 59 60 62 65 68 71 71 70 69 70 71 72 73 73 74 74 73 72 71 70 69 69 69 69 69 69 71 72 73 74 75 77 78 81 83 84 86 87 89 91 92 92 93 93 93 93 91 87 81 75 70 66 63 61 59 58 57 56 56 56 55 54 53 53
63 62 62 61 60 61 62 62 59 56 54 53 51 51 51 51 53 54 55 55 56 56 58 61 65 67 69 69 71 72 73 74 74 74 74 73 72 70 69 68 67 67 68 68 69 70 71 73 74 76 77 79 80 82 83 85 86 87 89 90 92 92 92 92 93 93 92 90 85 80 75 70 66 63 60 58 56 55 55 55 54 53 53 53 53
62 63 65 65 66 66 67 66 63 59 55 54 56 56 55 54 55 58 58 57 56 57 60 62 65 66 66 67 69 71 72 73 73 72 71 70 69 68 68 68 68 69 69 70 71 72 74 76 78 80 81 82 83 84 85 86 88 89 90 92 92 93 92 93 93 92 91 88 83 78 74 71 66 62 59 57 55 54 54 53 52 52 52 52 52
65 68 70 71 71 71 71 70 68 66 62 60 60 62 61 60 62 64 65 64 64 65 66 66 66 66 68 69 71 71 70 69 69 68 68 68 68 68 69 69 70 71 72 73 74 76 78 80 82 83 84 85 85 86 87 88 89 90 91 92 93 93 93 93 93 92 90 86 82 78 74 70 66 62 59 56 54 53 52 52 52 52 52 52 52
69 72 74 75 75 75 74 73 72 71 70 69 69 68 67 67 68 70 71 71 72 72 72 72 72 72 73 73 72 70 69 68 68 68 69 70 71 72 72 73 73 75 76 77 78 80 82 84 85 86 87 87 87 88 88 89 90 91 92 93 93 93 93 93 92 91 88 84 81 78 74 70 65 61 57 54 53 52 52 52 52 52 52 52 53
72 74 76 77 77 77 77 77 76 75 75 76 77 76 72 70 70 70 71 73 75 75 75 75 76 76 75 74 73 72 72 72 73 74 75 76 77 78 78 79 79 80 81 81 83 84 86 87 89 89 89 88 88 89 90 90 91 92 92 93 93 93 93 93 92 90 87 84 81 78 74 70 64 60 56 54 52 52 52 52 52 53 53 53 54
74 75 76 77 79 79 80 79 79 78 77 79 81 80 76 74 73 72 72 73 75 77 77 77 77 76 76 75 75 75 75 76 77 79 80 81 82 83 84 84 84 84 85 86 87 88 89 90 90 89 89 89 89 90 90 91 91 92 93 93 93 93 94 93 92 90 86 83 80 77 74 69 64 59 56 54 53 53 53 53 53 53 53 54 54
78 78 79 79 81 82 83 82 79 77 78 80 83 83 81 79 79 78 77 78 79 80 81 82 82 82 81 81 80 80 80 81 82 83 85 85 86 87 87 88 89 89 89 90 90 89 89 89 89 89 90 90 90 90 91 92 92 93 93 93 94 94 94 93 91 88 85 82 79 76 73 68 64 60 57 56 55 54 54 54 54 54 54 55 56
76 77 78 79 79 79 79 79 77 77 79 81 83 85 85 85 85 85 84 84 84 83 83 84 86 87 88 87 87 87 87 87 88 90 90 91 91 91 91 92 92 92 91 90 89 88 87 87 88 89 90 91 91 91 92 93 93 93 94 94 94 95 94 92 90 87 83 81 78 76 72 68 64 61 58 57 56 56 55 55 55 56 56 57 57
68 69 70 72 73 73 74 75 76 78 80 82 83 85 86 87 88 89 89 89 88 88 88 88 89 90 91 91 92 92 93 93 94 94 94 93 93 92 92 92 92 92 91 90 88 87 87 88 89 90 91 92 93 93 93 94 94 94 94 95 95 94 94 92 89 86 83 81 78 75 72 69 66 62 60 59 58 58 57 57 57 57 58 58 59
67 68 68 69 70 72 73 74 76 77 79 81 83 84 86 87 88 89 89 89 90 90 91 92 93 93 93 93 94 94 94 94 94 94 93 93 92 92 91 90 90 90 90 89 89 89 89 90 91 92 93 93 94 94 95 95 95 95 96 95 95 94 93 91 88 85 83 81 78 75 72 70 67 65 63 61 61 60 59 59 59 59 60 60 59
67 69 70 71 72 72 73 75 76 78 79 80 82 83 84 86 87 88 89 90 91 92 93 94 94 94 94 94 94 94 94 94 93 93 93 92 92 91 90 90 89 89 89 90 91 91 92 93 93 94 94 95 95 96 96 96 97 97 97 96 95 94 93 90 87 85 83 81 78 76 73 71 69 67 65 64 63 62 61 61 61 61 61 60 60
Wind_Direction
248 250 252 253 255 257 258 260 262 263 265 267 268 269 271 272 273 275 276 276 278 279 280 282 284 286 288 289 289 290 291 292 294 296 298 299 299 299 301 303 305 307 309 309 310 311 312 313 314 316 317 317 319 321 323 324 324 326 327 327 325 324 324 326 327 327 326 326 327 327 328 328 329 330 332 333 333 332 331 331 330 330 329 329 328
248 250 252 254 256 257 259 260 261 263 264 266 267 269 270 271 272 273 274 275 277 279 281 282 284 286 287 287 288 289 290 292 294 296 297 297 298 300 302 305 307 309 310 311 312 312 313 315 317 318 319 320 321 323 324 325 325 326 327 326 325 326 327 328 329 329 330 330 330 330 330 329 330 332 334 334 333 332 331 330 330 330 329 329 329
247 249 252 254 255 257 258 260 261 262 264 266 267 267 268 269 271 272 273 275 277 278 280 282 283 284 285 286 287 288 290 292 293 294 294 296 298 301 304 306 308 309 311 312 313 313 315 317 320 320 321 321 322 323 324 325 325 326 326 327 328 329 330 330 330 331 332 332 332 331 330 330 331 334 335 334 333 332 331 330 330 330 330 330 328
245 247 249 251 253 255 257 259 261 263 264 265 265 266 267 269 270 271 273 275 277 278 279 281 282 283 283 284 286 288 290 290 291 291 293 296 300 302 304 306 308 311 312 314 314 315 317 319 321 321 321 321 322 322 323 325 326 327 327 329 330 331 331 331 332 333 333 333 333 332 330 330 331 333 333 333 333 332 331 331 330 330 330 329 328
242 244 246 249 251 253 256 258 259 260 261 262 264 266 267 269 270 272 274 275 276 277 279 280 281 282 283 285 286 287 287 287 288 290 294 297 300 302 304 307 310 313 316 317 318 319 320 321 321 322 321 321 321 321 323 325 327 328 330 331 332 332 332 332 332 332 332 332 333 332 330 329 330 331 331 332 332 331 331 331 330 330 329 329 328
240 243 245 247 250 252 254 255 256 258 260 262 264 266 269 270 271 272 273 274 275 277 278 280 281 282 284 284 285 285 284 285 288 291 295 297 299 301 305 309 313 318 321 323 323 323 323 323 323 323 322 322 321 322 324 326 328 330 332 332 332 332 332 332 332 332 331 332 332 331 329 327 328 329 330 331 331 331 331 330 330 329 329 328 328
240 242 245 247 249 250 251 253 255 257 260 262 265 268 269 269 269 271 272 274 276 278 280 282 283 283 284 283 283 283 283 286 289 292 295 296 297 301 305 310 317 323 327 329 328 327 326 325 325 324 324 324 323 323 325 327 330 332 332 332 333 333 332 332 332 331 331 332 332 330 327 326 326 329 330 330 330 330 330 330 329 329 328 328 327
240 243 245 246 246 247 250 252 255 257 260 263 266 266 266 267 269 271 273 276 279 281 282 282 283 283 283 282 282 283 285 288 290 292 293 293 296 299 303 310 319 327 331 331 330 329 328 327 325 324 325 325 325 325 327 329 330 331 332 332 332 332 331 331 331 331 331 332 331 329 327 326 327 329 330 329 329 329 329 329 329 329 328 327 327
240 242 243 243 244 246 250 252 254 257 260 262 263 263 264 267 269 272 275 278 280 281 281 282 283 284 283 283 284 286 288 289 289 290 290 291 294 296 298 307 318 326 330 331 330 331 330 327 325 324 325 326 326 328 329 330 330 330 331 332 332 332 331 330 330 330 331 331 330 329 328 327 328 328 329 328 329 329 329 329 329 328 328 327 327
238 239 239 241 244 247 249 251 253 255 257 259 260 262 264 266 270 274 278 280 281 281 282 283 284 284 284 285 287 288 288 288 287 288 289 290 292 292 293 302 314 322 328 330 331 331 330 327 325 324 326 328 329 329 330 329 329 329 329 331 331 331 331 330 330 330 329 328 328 328 329 328 328 328 327 328 328 329 329 329 328 328 328 328 327
236 237 239 242 245 247 248 249 251 253 255 257 259 261 264 268 272 276 279 281 282 283 284 285 285 285 287 288 289 288 287 286 286 287 288 290 292 290 289 296 308 318 324 328 330 331 330 327 326 326 328 329 330 329 329 329 329 329 329 329 330 330 330 330 329 329 328 326 324 326 328 329 329 328 327 327 328 328 329 328 328 328 329 328 328
236 238 240 242 244 245 247 248 249 251 254 256 258 261 265 270 274 277 281 283 284 284 285 286 287 288 289 289 288 287 286 285 285 287 289 291 293 291 289 292 301 312 319 324 327 329 329 328 326 326 329 330 329 328 328 329 330 330 329 329 329 329 329 329 328 328 328 326 323 322 324 326 327 328 327 327 327 328 329 328 328 329 330 329 328
236 238 240 241 242 244 245 246 248 251 253 256 260 264 268 272 276 280 284 285 285 286 287 288 288 288 289 289 288 286 284 285 287 289 290 292 292 290 289 292 298 306 314 319 324 327 328 327 326 326 329 329 328 328 329 329 330 330 330 329 328 328 328 328 328 328 327 327 325 323 322 323 324 325 326 326 326 328 328 328 329 331 331 329 328
237 239 240 240 241 243 243 245 248 251 255 259 263 267 271 276 280 283 285 285 286 287 288 288 287 287 288 289 287 283 285 289 292 291 289 288 287 287 289 294 299 303 308 315 322 325 325 325 324 324 327 329 329 330 330 330 330 330 330 329 329 329 328 328 328 328 327 326 326 325 323 323 322 323 324 325 326 327 327 328 330 332 330 329 328
237 238 239 240 241 242 244 246 249 253 258 262 267 271 275 279 282 284 285 286 286 286 286 286 285 285 287 288 284 283 289 292 291 289 287 284 285 289 293 296 297 299 305 313 319 322 323 322 322 324 328 330 331 330 329 329 329 330 331 331 331 330 329 330 330 329 328 327 327 325 324 323 322 322 323 324 325 325 326 328 332 332 330 328 328
236 238 239 240 242 243 245 247 250 255 261 266 270 274 277 280 282 284 284 285 285 284 284 283 282 283 286 287 285 286 290 287 285 287 287 286 289 293 294 294 294 297 304 312 317 320 321 320 322 327 329 329 329 328 328 328 329 331 332 333 333 332 331 332 332 330 329 330 329 327 326 323 322 322 322 323 324 324 326 329 332 331 329 328 328
235 238 240 242 243 245 247 249 252 257 262 267 271 274 277 279 281 282 282 283 284 283 282 281 282 284 287 288 285 284 282 281 283 286 288 290 292 293 292 291 291 296 303 311 315 316 317 318 322 326 327 326 325 325 326 326 327 330 332 333 334 333 333 333 333 332 332 332 331 329 327 324 323 322 322 323 323 323 326 329 331 330 328 328 329
234 237 240 243 245 247 248 251 254 258 262 267 270 273 275 278 280 281 282 283 283 283 282 283 284 286 288 287 282 277 276 279 281 283 285 287 288 288 288 289 291 294 301 308 312 313 315 317 321 324 324 323 322 322 322 323 324 327 329 331 333 333 333 334 334 334 334 334 333 330 328 325 324 323 322 322 322 323 326 329 330 329 327 328 329
234 238 241 244 247 249 250 252 255 258 262 265 268 271 276 279 281 282 283 283 284 284 285 286 287 288 287 284 279 274 274 276 277 278 279 282 283 283 286 289 291 294 299 305 309 313 317 319 321 322 321 320 320 319 319 321 322 324 325 328 330 331 332 334 335 335 335 335 334 332 329 326 325 323 322 322 322 323 326 329 329 328 327 328 330
234 236 239 242 245 247 248 250 253 256 260 264 268 273 276 278 279 280 282 284 285 286 287 288 289 289 286 283 279 275 273 272 272 274 277 280 281 282 285 289 292 294 298 305 311 315 319 319 318 318 318 318 318 317 316 318 320 322 323 325 326 328 329 331 333 335 336 336 335 333 330 328 325 323 322 322 322 324 327 328 328 327 327 329 331
230 233 235 238 241 243 245 248 251 255 259 265 269 270 270 271 273 277 281 284 285 286 288 290 290 288 285 281 279 277 274 272 273 275 278 281 283 283 285 289 291 294 301 309 314 317 318 317 315 315 316 317 317 314 314 316 318 320 321 322 323 324 326 328 330 333 335 336 335 334 331 329 326 324 322 322 323 325 326 327 327 326 327 330 331
229 232 234 237 240 242 244 246 250 252 254 254 254 255 256 260 265 270 276 279 280 285 289 289 287 286 284 281 279 278 276 276 278 280 282 284 285 285 286 288 289 293 301 308 312 314 314 312 312 315 316 317 316 313 312 314 316 318 319 319 320 322 323 326 327 330 333 336 335 334 332 329 326 324 323 323 324 325 325 326 326 325 327 330 331
230 233 236 238 240 242 243 245 248 250 251 250 247 247 251 255 259 264 272 277 279 284 290 290 287 286 284 281 277 277 279 281 283 285 286 287 287 286 285 286 287 290 298 304 307 308 309 309 311 314 316 316 315 312 312 313 315 316 317 317 319 320 322 323 325 328 332 335 335 334 333 330 327 325 324 324 325 324 324 325 325 324 328 331 331
231 233 236 238 240 242 243 244 247 250 254 255 253 252 254 257 260 264 270 275 277 280 287 292 293 290 285 280 278 279 282 284 285 288 288 286 285 283 283 284 286 289 295 300 303 305 306 307 309 312 314 315 314 312 312 313 314 316 316 317 318 319 320 321 323 327 331 333 334 334 334 331 328 326 325 324 324 323 323 324 323 324 328 331 332
231 233 235 237 240 242 243 244 247 250 253 255 255 255 256 258 262 265 268 271 273 275 280 288 294 293 286 281 281 283 284 283 284 288 288 284 282 282 282 283 286 290 294 297 300 302 303 304 307 310 312 313 313 312 312 313 314 316 317 318 318 319 320 321 323 327 330 332 333 334 334 332 329 327 325 324 323 323 323 323 323 325 328 331 332
231 233 236 238 241 242 243 244 246 249 251 253 254 255 256 259 262 263 265 268 271 274 277 281 285 288 288 284 281 282 283 283 284 286 286 283 282 281 281 284 287 290 292 294 297 300 300 302 305 308 310 311 311 311 311 312 314 316 317 319 319 319 320 321 324 327 330 331 333 335 335 333 329 327 325 323 322 322 322 322 323 325 328 330 332
232 235 237 239 241 243 243 244 245 248 251 253 254 256 258 261 263 264 266 268 270 273 276 278 280 283 286 286 282 280 278 279 282 284 284 282 280 279 281 285 287 287 289 292 296 298 299 302 305 307 308 309 309 309 310 312 313 315 317 318 319 319 321 323 325 327 329 331 333 335 335 333 330 327 324 323 322 321 321 321 323 326 328 330 332
233 235 237 239 241 243 244 245 246 249 253 255 257 258 261 263 264 266 268 271 272 273 276 278 279 280 282 283 284 281 277 277 281 283 282 281 282 282 284 286 286 286 289 293 296 298 300 302 304 306 307 307 307 308 309 311 312 314 316 317 318 319 322 323 325 327 329 331 333 335 335 333 330 327 324 323 322 321 320 321 323 326 328 330 332
232 234 236 238 241 243 246 248 249 251 255 258 259 262 264 266 267 269 271 274 275 275 275 278 278 276 275 276 279 281 279 279 282 283 282 283 284 285 285 285 286 288 292 296 298 299 300 302 303 304 305 306 306 307 309 310 312 314 315 317 318 320 322 324 325 327 329 331 333 335 335 333 330 327 325 323 321 320 320 321 324 326 328 330 331
233 235 236 238 241 244 247 250 252 255 258 260 262 265 267 268 269 270 272 275 276 274 272 273 272 271 271 273 275 277 278 280 281 281 280 281 282 282 282 283 286 290 293 296 298 298 298 300 302 303 304 305 306 307 308 310 312 313 315 317 319 320 322 323 325 326 328 330 332 334 335 333 330 327 325 322 320 320 321 322 324 326 328 330 331
234 235 237 238 241 243 246 249 252 256 259 261 264 266 267 267 268 269 271 273 272 269 267 266 266 268 271 274 275 276 277 278 279 278 277 277 278 278 280 283 286 290 293 296 297 296 297 299 301 301 303 304 305 306 308 310 312 313 315 317 318 320 321 322 324 326 328 330 332 333 334 333 330 327 325 321 319 319 321 323 324 325 327 329 330
234 235 237 238 239 241 244 244 245 248 251 255 260 262 263 263 266 268 270 270 267 266 266 267 266 268 272 274 275 274 273 273 274 275 276 277 278 278 280 283 286 290 293 296 296 296 298 299 300 300 302 303 305 307 309 310 312 313 315 316 318 319 320 322 324 326 328 330 331 332 333 332 330 327 324 321 319 319 321 323 324 324 327 328 328
234 235 236 237 238 240 242 242 242 243 246 250 255 258 260 262 265 267 268 266 264 265 267 268 268 269 271 271 271 270 270 270 271 273 276 278 278 279 281 284 286 290 294 296 296 297 299 299 299 300 302 304 305 307 309 310 311 313 314 315 317 318 320 321 323 326 328 330 331 331 331 331 329 326 324 321 319 319 322 323 323 324 325 326 327
235 235 237 238 239 241 243 244 245 247 248 251 255 257 259 262 264 264 263 261 262 264 265 265 265 266 267 267 267 268 269 270 272 274 276 276 277 279 281 284 287 291 293 295 296 298 299 298 298 300 302 304 305 307 308 309 310 311 313 315 316 317 319 321 323 325 327 329 330 330 330 329 328 326 323 320 319 320 321 322 322 323 323 324 325
236 237 238 239 240 242 244 246 248 249 252 253 255 256 257 258 259 260 261 261 262 262 263 264 265 265 264 264 265 266 268 271 273 274 274 275 277 279 281 284 288 290 292 294 296 297 298 298 298 300 301 303 304 306 307 308 309 310 312 314 315 317 319 321 323 325 327 328 329 329 328 327 326 324 322 319 318 319 320 321 322 322 321 322 324
237 239 240 241 242 243 245 247 249 251 252 252 252 254 255 254 254 256 258 260 259 260 262 264 265 264 263 263 264 265 268 270 272 272 273 275 277 279 281 284 286 288 290 293 295 296 296 297 298 299 300 302 303 305 305 306 307 309 311 313 315 317 318 320 322 324 326 328 328 327 326 325 324 323 320 318 317 318 319 320 320 319 319 320 322
238 239 240 242 243 244 246 248 249 249 248 248 251 253 252 248 249 253 255 255 255 258 262 263 261 259 260 262 263 265 268 270 270 271 272 274 277 279 281 283 285 287 290 292 294 294 295 295 296 298 299 301 302 303 304 305 307 309 310 312 314 316 318 320 322 324 326 327 326 326 325 324 322 321 319 317 316 316 317 318 317 316 316 318 321
238 239 241 242 243 244 246 246 245 244 245 247 251 252 248 243 246 250 253 255 257 259 261 261 259 259 261 263 265 267 268 269 269 270 272 274 276 279 282 284 285 288 290 291 292 293 293 294 295 297 298 300 301 302 303 305 307 309 310 312 314 316 317 319 321 323 325 325 325 324 323 322 320 318 316 314 313 314 314 314 313 313 314 317 319
238 239 239 240 241 241 241 240 239 240 243 246 247 248 247 246 247 250 253 256 257 257 256 256 257 259 262 263 265 266 267 268 269 271 273 275 277 279 281 283 285 287 288 290 291 291 292 293 295 296 297 299 300 302 303 305 307 309 310 312 313 315 316 318 320 322 323 324 324 323 321 319 317 315 313 311 310 309 310 310 310 311 313 316 318
236 237 238 238 237 235 235 236 236 237 239 241 241 243 245 246 246 247 249 252 253 253 254 255 256 258 260 261 263 265 267 268 269 271 273 275 277 278 280 282 284 286 287 289 290 291 292 293 294 295 297 298 300 301 303 305 307 308 310 311 312 314 316 318 319 321 322 323 323 321 319 317 315 312 310 308 307 306 306 307 308 310 312 315 317
235 235 235 235 234 234 235 236 237 237 237 236 236 237 238 239 240 241 243 245 249 252 254 256 257 258 260 262 263 264 266 267 269 271 272 274 276 277 279 282 284 286 287 289 290 291 292 293 294 295 296 298 300 301 303 305 306 307 309 310 311 313 315 317 318 320 321 322 321 320 318 316 314 311 309 307 305 304 304 305 307 309 312 314 316
233 232 232 232 233 235 236 235 235 235 233 232 232 233 234 235 237 240 242 245 249 251 253 255 257 259 261 262 263 264 265 267 268 270 271 273 275 277 279 282 284 286 288 289 290 291 292 293 294 295 297 298 300 301 303 304 305 306 307 309 310 312 314 315 317 319 320 320 320 318 316 314 312 311 309 307 304 303 303 305 307 309 311 313 315
231 231 232 233 235 236 237 235 233 232 232 230 230 232 235 237 239 242 245 248 250 252 253 255 257 259 261 263 265 266 267 267 268 269 270 273 276 278 281 283 285 286 287 289 290 291 292 293 294 296 297 298 300 301 302 303 304 305 306 308 309 311 313 315 316 318 319 319 318 316 314 313 311 310 309 307 304 302 303 306 308 309 311 313 314
233 232 234 235 237 237 238 237 234 233 234 233 232 233 237 241 242 243 245 248 250 252 254 256 258 260 262 264 264 265 265 266 267 269 271 274 277 279 281 283 284 285 287 288 289 290 292 293 294 295 296 298 299 300 301 302 303 304 306 307 309 310 312 314 315 317 317 317 316 315 313 312 311 310 309 307 304 303 304 306 308 309 310 312 313
237 236 237 238 239 239 239 239 238 237 238 236 235 235 238 240 240 242 244 246 249 252 254 257 259 260 262 263 263 264 264 266 268 271 273 276 278 280 281 282 283 284 286 287 289 290 291 292 293 294 296 297 298 299 300 301 302 304 305 307 308 310 312 313 314 315 315 315 315 314 313 312 310 309 308 306 305 304 305 306 307 309 310 311 312
240 239 240 240 241 242 243 243 243 242 240 237 235 235 236 237 239 241 243 245 247 250 252 255 257 259 260 261 263 264 265 267 269 271 274 276 278 279 281 282 283 284 285 286 288 289 290 291 292 293 294 295 296 297 299 300 301 303 304 306 308 309 311 312 312 313 314 314 314 314 313 311 309 308 307 306 305 305 305 306 307 308 310 311 311
243 243 243 243 244 246 247 247 245 242 239 236 235 235 237 238 240 242 244 246 248 250 252 254 256 258 260 261 263 264 266 269 271 272 274 276 277 279 280 281 282 283 284 285 287 288 289 290 291 292 293 294 295 297 298 299 301 302 304 305 307 308 309 310 311 312 312 312 312 312 311 309 308 307 306 305 305 305 305 306 307 308 309 310 310
244 244 243 243 244 245 246 246 243 240 239 238 238 238 239 241 243 245 247 249 251 252 254 256 257 259 260 262 263 265 267 269 271 273 274 276 278 279 280 281 282 283 284 285 286 287 288 288 289 290 292 293 294 296 297 299 300 302 303 305 306 307 308 308 309 310 310 310 310 310 309 307 306 306 305 304 304 305 305 306 307 308 308 309 309
242 241 240 240 240 241 243 244 243 242 242 242 242 242 242 244 245 247 249 250 252 253 255 257 258 259 261 262 264 266 268 270 272 274 275 277 279 280 282 283 283 284 284 285 285 285 286 287 288 289 291 292 294 295 297 298 300 301 303 304 305 305 306 307 307 308 308 308 309 308 307 305 305 304 303 303 303 304 305 305 306 307 307 307 307
241 241 240 240 240 241 242 244 244 244 244 245 246 246 246 247 248 249 251 252 253 255 257 258 260 262 263 265 267 268 270 271 273 275 277 278 280 281 281 282 282 282 283 283 284 284 285 286 287 289 290 292 293 295 296 297 299 300 301 302 303 304 305 305 305 306 306 307 307 306 305 303 303 302 302 302 302 303 304 305 305 305 305 305 306
243 242 242 241 242 242 243 244 245 245 246 246 247 248 249 250 250 251 252 253 255 256 257 259 261 262 264 265 267 269 270 272 273 275 277 278 279 279 279 279 279 279 280 281 282 283 285 286 287 289 290 292 293 294 296 297 298 299 300 301 302 303 303 303 304 304 305 305 305 304 303 301 301 301 301 301 301 302 303 303 304 304 304 304 304
Height
10677 10679 10682 10684 10685 10686 10688 10689 10689 10690 10690 10690 10692 10692 10692 10692 10693 10693 10693 10692 10692 10692 10691 10690 10689 10688 10687 10687 10686 10685 10684 10682 10682 10681 10680 10679 10677 10675 10674 10671 10669 10667 10665 10663 10661 10659 10656 10654 10652 10649 10646 10643 10640 10638 10635 10632 10629 10626 10623 10619 10616 10613 10609 10606 10602 10599 10595 10591 10586 10581 10576 10572 10567 10562 10558 10552 10547 10542 10537 10532 10527 10521 10516 10509 10502
10673 10674 10676 10678 10680 10681 10682 10683 10684 10684 10685 10686 10687 10687 10687 10687 10688 10688 10688 10687 10687 10687 10686 10685 10684 10683 10683 10682 10681 10680 10679 10678 10677 10676 10675 10674 10673 10671 10670 10668 10665 10663 10661 10659 10657 10654 10652 10650 10648 10645 10642 10639 10637 10634 10631 10628 10625 10622 10618 10615 10611 10608 10604 10600 10597 10594 10590 10585 10581 10576 10571 10567 10562 10558 10553 10548 10543 10538 10532 10527 10522 10516 10511 10504 10498
10667 10669 10671 10673 10674 10676 10677 10678 10679 10679 10680 10681 10681 10682 10682 10682 10683 10683 10683 10683 10683 10682 10681 10680 10680 10679 10678 10677 10676 10675 10674 10673 10672 10672 10671 10670 10669 10667 10665 10663 10661 10659 10657 10655 10653 10650 10648 10646 10644 10641 10638 10636 10633 10630 10627 10624 10621 10618 10614 10610 10607 10603 10599 10595 10591 10587 10583 10580 10575 10571 10566 10562 10557 10553 10548 10544 10539 10534 10528 10522 10516 10511 10505 10500 10493
10662 10664 10666 10667 10669 10671 10671 10672 10674 10674 10675 10676 10676 10677 10677 10678 10678 10678 10678 10678 10678 10677 10677 10676 10675 10674 10673 10672 10672 10671 10670 10669 10668 10668 10667 10666 10664 10663 10661 10659 10657 10655 10654 10651 10649 10647 10645 10643 10640 10638 10635 10632 10629 10626 10623 10620 10617 10614 10610 10606 10603 10599 10595 10591 10586 10582 10578 10574 10570 10566 10562 10557 10552 10548 10544 10540 10535 10530 10524 10518 10512 10506 10500 10494 10488
10657 10659 10660 10662 10664 10665 10666 10668 10669 10669 10670 10671 10672 10672 10673 10673 10674 10673 10673 10673 10673 10673 10672 10671 10671 10670 10669 10668 10667 10667 10666 10665 10665 10664 10663 10661 10660 10658 10657 10655 10653 10652 10650 10648 10646 10643 10641 10639 10636 10634 10631 10628 10625 10623 10620 10617 10614 10610 10606 10603 10599 10595 10591 10587 10583 10579 10575 10571 10566 10562 10557 10552 10548 10544 10540 10535 10530 10525 10519 10514 10508 10502 10495 10489 10482
10652 10654 10655 10658 10659 10660 10662 10663 10664 10665 10666 10667 10667 10668 10669 10669 10669 10669 10669 10669 10668 10668 10667 10667 10666 10665 10664 10663 10663 10663 10662 10662 10661 10660 10658 10657 10655 10654 10653 10651 10650 10648 10646 10644 10642 10639 10637 10635 10632 10630 10627 10624 10622 10619 10616 10613 10610 10606 10602 10599 10595 10591 10587 10584 10580 10576 10572 10567 10563 10558 10553 10549 10545 10541 10535 10530 10525 10519 10514 10509 10503 10497 10490 10485 10478
10647 10649 10651 10653 10655 10656 10657 10658 10659 10661 10662 10663 10664 10664 10664 10664 10665 10665 10664 10664 10663 10663 10662 10662 10661 10660 10660 10659 10659 10659 10658 10658 10657 10656 10654 10653 10651 10650 10649 10648 10647 10645 10643 10641 10638 10636 10633 10631 10628 10626 10623 10620 10618 10615 10612 10609 10605 10602 10599 10595 10592 10588 10584 10580 10576 10572 10568 10564 10559 10554 10550 10546 10542 10537 10531 10526 10520 10515 10509 10503 10497 10491 10485 10479 10474
10642 10644 10646 10648 10650 10651 10652 10654 10655 10657 10658 10659 10660 10660 10660 10660 10661 10660 10660 10659 10658 10658 10658 10657 10657 10656 10656 10656 10656 10655 10655 10655 10653 10652 10650 10649 10648 10647 10646 10645 10643 10642 10640 10637 10635 10632 10629 10627 10624 10622 10619 10617 10614 10611 10608 10605 10601 10598 10595 10592 10589 10585 10581 10577 10573 10569 10564 10560 10555 10551 10547 10542 10537 10532 10527 10522 10516 10510 10504 10497 10491 10486 10479 10473 10468
10638 10640 10642 10644 10645 10646 10648 10650 10651 10653 10654 10655 10655 10656 10656 10657 10657 10656 10654 10654 10654 10654 10653 10653 10653 10653 10652 10652 10652 10652 10652 10650 10649 10647 10646 10645 10644 10643 10642 10641 10640 10638 10636 10634 10632 10629 10626 10623 10621 10618 10616 10613 10610 10606 10603 10600 10597 10594 10592 10588 10585 10581 10577 10573 10569 10564 10560 10556 10552 10547 10543 10538 10533 10528 10523 10517 10511 10505 10498 10491 10485 10480 10474 10467 10461
10633 10635 10637 10639 10641 10643 10645 10646 10647 10649 10650 10651 10651 10652 10652 10652 10652 10651 10650 10650 10650 10650 10649 10649 10649 10649 10649 10649 10649 10648 10648 10646 10644 10643 10642 10641 10641 10640 10639 10638 10636 10635 10633 10631 10629 10626 10623 10620 10617 10615 10612 10609 10605 10601 10598 10596 10593 10591 10588 10585 10581 10578 10573 10569 10564 10560 10556 10553 10548 10543 10539 10534 10529 10524 10518 10513 10507 10500 10493 10486 10480 10474 10468 10463 10457
10629 10631 10633 10635 10637 10639 10641 10642 10643 10644 10645 10646 10647 10648 10648 10648 10647 10646 10646 10646 10646 10646 10645 10645 10645 10645 10645 10645 10645 10644 10643 10642 10640 10639 10638 10638 10637 10636 10635 10634 10633 10631 10630 10628 10626 10623 10620 10616 10613 10611 10608 10605 10602 10599 10596 10593 10590 10587 10584 10581 10578 10574 10570 10565 10561 10557 10553 10549 10544 10540 10535 10530 10525 10519 10514 10508 10502 10495 10488 10481 10475 10468 10461 10456 10451
10625 10627 10629 10632 10634 10635 10637 10638 10639 10640 10641 10643 10643 10644 10644 10644 10643 10642 10642 10642 10642 10642 10641 10641 10642 10642 10642 10642 10641 10640 10639 10637 10635 10634 10634 10633 10633 10632 10631 10630 10629 10627 10626 10625 10623 10620 10616 10613 10610 10607 10604 10601 10599 10596 10593 10590 10586 10583 10580 10577 10574 10570 10566 10562 10557 10553 10549 10545 10540 10535 10530 10526 10520 10515 10509 10503 10498 10491 10484 10477 10470 10463 10456 10449 10443
10621 10623 10626 10628 10630 10631 10633 10634 10635 10636 10638 10639 10639 10640 10639 10639 10639 10639 10639 10638 10638 10638 10637 10638 10638 10638 10638 10638 10637 10636 10634 10633 10631 10630 10630 10629 10628 10627 10626 10625 10624 10623 10622 10621 10619 10616 10613 10610 10606 10603 10601 10597 10594 10591 10588 10585 10582 10579 10577 10574 10570 10567 10563 10558 10554 10550 10545 10541 10536 10531 10526 10521 10515 10510 10505 10499 10493 10487 10480 10473 10466 10459 10452 10445 10438
10618 10620 10622 10624 10626 10627 10628 10629 10631 10632 10633 10635 10635 10635 10635 10635 10635 10635 10635 10635 10634 10634 10634 10635 10635 10635 10635 10634 10633 10632 10630 10629 10627 10626 10625 10624 10623 10622 10621 10621 10620 10618 10618 10617 10616 10613 10609 10606 10603 10600 10597 10594 10589 10586 10583 10581 10578 10576 10573 10570 10567 10563 10559 10555 10550 10546 10541 10536 10531 10526 10521 10516 10510 10505 10500 10494 10488 10482 10476 10469 10462 10455 10448 10442 10435
10614 10616 10618 10620 10621 10623 10624 10625 10627 10628 10630 10631 10631 10631 10631 10631 10631 10631 10630 10631 10631 10631 10631 10631 10631 10631 10630 10629 10628 10628 10627 10625 10623 10621 10620 10619 10618 10618 10617 10617 10615 10614 10613 10613 10611 10608 10605 10602 10599 10596 10592 10589 10586 10583 10580 10578 10576 10573 10570 10567 10564 10560 10556 10551 10547 10542 10537 10532 10527 10522 10517 10511 10506 10500 10495 10490 10484 10478 10472 10465 10458 10451 10445 10439 10433
10610 10611 10613 10615 10617 10618 10620 10622 10623 10625 10626 10627 10627 10627 10627 10627 10627 10626 10626 10626 10627 10627 10626 10626 10626 10626 10625 10625 10624 10624 10623 10621 10618 10617 10616 10615 10614 10614 10613 10612 10610 10609 10609 10609 10607 10604 10601 10598 10594 10591 10588 10585 10582 10580 10578 10575 10573 10570 10567 10564 10561 10557 10552 10548 10543 10539 10534 10528 10523 10518 10512 10507 10501 10495 10490 10485 10479 10473 10467 10461 10453 10447 10441 10434 10429
10604 10606 10609 10611 10613 10615 10617 10618 10620 10621 10622 10623 10623 10622 10622 10622 10622 10622 10622 10622 10622 10622 10621 10621 10621 10622 10621 10621 10620 10620 10618 10616 10614 10613 10612 10611 10610 10609 10608 10607 10605 10603 10604 10604 10603 10601 10598 10594 10591 10587 10585 10583 10580 10578 10575 10572 10569 10566 10564 10561 10557 10553 10548 10544 10540 10535 10530 10525 10519 10513 10508 10502 10496 10491 10486 10480 10474 10468 10462 10456 10450 10444 10437 10431 10424
10599 10602 10605 10607 10610 10612 10614 10615 10616 10617 10618 10618 10618 10617 10617 10617 10617 10617 10617 10617 10617 10617 10616 10616 10617 10617 10617 10616 10615 10614 10612 10611 10610 10609 10607 10606 10606 10605 10604 10602 10599 10598 10599 10600 10598 10596 10594 10590 10587 10584 10582 10580 10577 10575 10572 10569 10566 10562 10560 10556 10553 10549 10544 10540 10536 10531 10526 10521 10515 10509 10503 10497 10491 10486 10481 10475 10469 10464 10458 10452 10446 10440 10434 10428 10421
10594 10598 10601 10604 10606 10608 10610 10612 10612 10613 10614 10613 10613 10613 10613 10613 10613 10613 10612 10612 10612 10612 10611 10612 10613 10613 10612 10611 10610 10609 10608 10607 10606 10604 10603 10602 10601 10600 10599 10596 10593 10592 10593 10594 10593 10591 10589 10585 10582 10580 10578 10575 10573 10571 10568 10565 10562 10559 10555 10552 10549 10545 10541 10536 10532 10527 10522 10516 10511 10505 10499 10492 10486 10481 10476 10470 10465 10459 10453 10447 10442 10436 10430 10425 10418
10590 10594 10597 10599 10601 10602 10604 10606 10607 10608 10608 10608 10608 10608 10608 10608 10607 10607 10607 10607 10607 10607 10607 10608 10608 10608 10607 10606 10605 10604 10604 10603 10602 10600 10598 10597 10596 10595 10593 10591 10587 10585 10586 10588 10586 10584 10582 10579 10577 10575 10573 10570 10568 10566 10564 10561 10557 10554 10551 10547 10544 10541 10536 10532 10527 10522 10517 10512 10506 10500 10494 10487 10481 10476 10471 10465 10460 10454 10448 10443 10438 10432 10426 10421 10415
10584 10587 10590 10591 10593 10596 10598 10600 10602 10603 10603 10603 10603 10603 10602 10602 10601 10601 10602 10602 10602 10603 10603 10603 10603 10602 10602 10601 10600 10599 10599 10598 10597 10596 10594 10593 10592 10590 10588 10585 10581 10578 10579 10579 10578 10576 10575 10573 10572 10571 10568 10566 10564 10562 10559 10556 10553 10549 10546 10543 10539 10536 10531 10527 10522 10517 10512 10507 10501 10495 10488 10482 10476 10471 10466 10460 10455 10448 10443 10438 10433 10428 10423 10417 10411
10578 10581 10583 10585 10587 10590 10593 10595 10596 10596 10595 10594 10594 10595 10595 10596 10596 10596 10597 10597 10597 10598 10599 10598 10598 10597 10596 10596 10595 10594 10594 10594 10593 10592 10590 10588 10585 10583 10582 10580 10576 10573 10573 10573 10572 10571 10570 10569 10567 10566 10564 10561 10559 10557 10554 10551 10548 10545 10541 10537 10534 10530 10526 10521 10517 10512 10507 10502 10495 10489 10483 10476 10471 10466 10460 10455 10449 10443 10438 10433 10428 10423 10418 10413 10408
10573 10575 10577 10579 10581 10584 10587 10589 10589 10588 10586 10585 10587 10589 10590 10590 10591 10592 10593 10593 10594 10594 10594 10593 10592 10592 10592 10591 10590 10589 10588 10589 10589 10587 10585 10583 10580 10577 10575 10574 10573 10571 10570 10570 10569 10568 10567 10565 10563 10562 10560 10557 10554 10551 10549 10546 10543 10540 10536 10532 10528 10524 10520 10516 10511 10507 10502 10496 10490 10484 10478 10471 10465 10459 10454 10449 10443 10438 10433 10428 10424 10419 10414 10410 10405
10567 10569 10571 10573 10575 10578 10582 10584 10583 10583 10583 10584 10585 10586 10585 10586 10588 10589 10590 10590 10590 10590 10590 10589 10588 10587 10587 10586 10585 10584 10584 10584 10585 10583 10581 10580 10577 10573 10571 10570 10568 10567 10567 10567 10566 10564 10563 10561 10559 10558 10556 10553 10549 10546 10543 10541 10538 10535 10530 10526 10522 10519 10515 10510 10506 10501 10496 10490 10484 10479 10472 10465 10459 10453 10448 10443 10438 10433 10428 10424 10419 10415 10410 10406 10401
10561 10562 10563 10566 10570 10573 10577 10578 10578 10578 10579 10581 10581 10581 10581 10582 10584 10585 10586 10586 10586 10586 10586 10585 10584 10583 10582 10581 10580 10580 10579 10579 10580 10579 10577 10576 10574 10571 10568 10565 10563 10563 10563 10562 10561 10560 10559 10557 10555 10553 10551 10548 10544 10541 10538 10536 10533 10529 10525 10521 10517 10513 10509 10505 10500 10495 10490 10484 10479 10473 10466 10459 10452 10446 10441 10437 10433 10428 10423 10419 10415 10410 10406 10402 10397
10554 10556 10558 10562 10565 10568 10571 10572 10573 10574 10575 10576 10576 10577 10578 10579 10580 10582 10582 10582 10581 10581 10581 10580 10580 10579 10578 10578 10577 10576 10575 10573 10574 10574 10573 10572 10570 10567 10563 10561 10559 10558 10558 10557 10557 10556 10554 10552 10551 10548 10546 10543 10539 10536 10533 10530 10527 10524 10520 10516 10512 10508 10503 10499 10494 10489 10484 10479 10473 10467 10460 10453 10446 10440 10435 10431 10427 10422 10418 10414 10411 10407 10402 10398 10393
10548 10551 10555 10558 10560 10562 10564 10566 10568 10570 10570 10571 10572 10574 10574 10575 10576 10577 10577 10577 10576 10576 10576 10575 10575 10574 10573 10573 10573 10571 10569 10568 10568 10568 10568 10566 10564 10561 10558 10556 10555 10554 10553 10552 10552 10551 10549 10547 10545 10542 10540 10538 10535 10531 10528 10526 10522 10519 10515 10511 10507 10502 10498 10492 10487 10482 10477 10472 10467 10461 10454 10447 10441 10435 10430 10425 10422 10417 10413 10410 10406 10403 10398 10394 10390
10543 10547 10550 10553 10554 10555 10557 10561 10565 10566 10567 10567 10569 10570 10570 10570 10570 10571 10571 10572 10571 10570 10570 10570 10569 10569 10568 10569 10568 10566 10564 10563 10564 10564 10562 10559 10556 10554 10552 10550 10549 10548 10547 10547 10546 10545 10543 10541 10539 10536 10534 10532 10530 10527 10523 10520 10517 10513 10509 10505 10501 10496 10491 10486 10481 10476 10471 10465 10461 10455 10449 10442 10436 10430 10425 10420 10416 10413 10409 10405 10402 10398 10394 10390 10386
10537 10540 10544 10546 10548 10550 10552 10556 10560 10563 10564 10564 10565 10566 10566 10565 10565 10565 10565 10566 10565 10564 10565 10564 10562 10561 10563 10564 10563 10561 10559 10559 10559 10558 10556 10552 10549 10548 10546 10543 10542 10542 10541 10540 10540 10538 10536 10535 10533 10531 10528 10526 10524 10521 10518 10515 10512 10508 10504 10499 10494 10490 10485 10480 10475 10470 10465 10460 10455 10450 10444 10437 10431 10425 10420 10415 10412 10408 10405 10401 10397 10393 10390 10386 10382
10532 10535 10537 10540 10542 10545 10547 10551 10555 10559 10560 10559 10560 10561 10560 10559 10559 10559 10560 10560 10559 10559 10560 10560 10557 10554 10554 10557 10558 10556 10553 10553 10553 10552 10550 10546 10543 10541 10539 10537 10537 10536 10535 10534 10533 10532 10530 10529 10526 10524 10522 10520 10517 10515 10513 10510 10506 10502 10498 10493 10488 10484 10479 10475 10470 10465 10460 10454 10450 10444 10439 10433 10426 10420 10415 10411 10407 10404 10401 10397 10393 10389 10386 10382 10378
10526 10528 10531 10534 10536 10539 10542 10547 10552 10554 10553 10552 10553 10554 10552 10552 10552 10552 10554 10556 10554 10550 10550 10553 10552 10548 10546 10549 10551 10549 10546 10545 10546 10544 10542 10539 10537 10535 10533 10532 10531 10530 10530 10529 10527 10525 10524 10522 10519 10516 10515 10514 10511 10509 10506 10503 10499 10495 10491 10486 10482 10478 10474 10470 10466 10460 10454 10449 10444 10439 10434 10428 10422 10416 10411 10406 10403 10400 10397 10393 10388 10384 10381 10378 10374
10518 10521 10524 10526 10529 10531 10535 10541 10546 10545 10543 10544 10546 10546 10545 10545 10545 10545 10548 10551 10549 10543 10540 10542 10543 10541 10540 10540 10541 10539 10538 10537 10537 10536 10534 10532 10530 10529 10528 10526 10524 10523 10523 10523 10520 10518 10516 10514 10511 10509 10508 10507 10504 10502 10498 10495 10491 10488 10484 10480 10476 10472 10468 10464 10459 10455 10449 10443 10438 10433 10428 10423 10417 10412 10407 10403 10399 10396 10393 10389 10385 10380 10376 10373 10370
10510 10513 10515 10518 10521 10524 10528 10533 10536 10536 10536 10539 10542 10541 10539 10539 10539 10541 10542 10544 10542 10538 10534 10532 10533 10533 10532 10531 10531 10530 10529 10529 10529 10529 10529 10527 10524 10522 10521 10519 10517 10516 10516 10515 10513 10510 10509 10507 10503 10501 10500 10498 10495 10493 10490 10487 10483 10480 10477 10473 10470 10466 10462 10457 10453 10448 10443 10438 10432 10427 10422 10417 10412 10407 10403 10398 10394 10391 10389 10385 10381 10376 10372 10369 10366
10502 10505 10508 10511 10515 10518 10521 10525 10528 10530 10533 10536 10538 10536 10535 10534 10535 10536 10536 10535 10534 10531 10528 10525 10525 10525 10523 10522 10522 10522 10521 10521 10522 10523 10523 10521 10517 10515 10514 10512 10511 10510 10508 10507 10505 10503 10502 10500 10496 10493 10492 10489 10486 10484 10482 10479 10476 10473 10470 10467 10463 10460 10456 10451 10447 10442 10438 10432 10427 10422 10417 10412 10407 10402 10398 10393 10390 10387 10384 10381 10377 10372 10368 10365 10362
10497 10500 10503 10506 10509 10512 10515 10518 10522 10525 10527 10530 10531 10531 10531 10531 10530 10529 10528 10527 10525 10523 10521 10519 10517 10515 10514 10514 10514 10514 10514 10514 10515 10515 10515 10513 10511 10509 10508 10507 10505 10503 10500 10499 10497 10495 10493 10491 10489 10485 10483 10482 10479 10477 10474 10471 10468 10466 10463 10460 10457 10453 10449 10445 10440 10436 10431 10427 10422 10416 10411 10406 10402 10397 10392 10388 10385 10382 10379 10376 10372 10368 10364 10361 10357
10491 10494 10496 10499 10503 10506 10509 10512 10515 10518 10520 10522 10524 10525 10526 10526 10525 10522 10520 10519 10517 10516 10515 10513 10510 10506 10506 10507 10506 10506 10506 10507 10508 10507 10507 10506 10504 10502 10502 10500 10498 10495 10494 10492 10491 10488 10485 10483 10481 10478 10475 10473 10472 10470 10467 10464 10462 10459 10456 10453 10450 10446 10442 10438 10434 10430 10425 10421 10416 10411 10406 10401 10396 10392 10387 10383 10380 10377 10374 10371 10367 10364 10360 10356 10353
10484 10487 10489 10493 10497 10500 10503 10505 10509 10511 10513 10514 10516 10519 10519 10518 10517 10515 10513 10510 10509 10508 10508 10507 10503 10500 10499 10499 10498 10498 10499 10500 10499 10499 10499 10498 10497 10495 10494 10492 10490 10489 10488 10486 10484 10482 10479 10476 10473 10471 10468 10466 10464 10462 10460 10458 10455 10452 10449 10446 10442 10439 10435 10432 10427 10423 10419 10415 10410 10405 10400 10395 10390 10386 10382 10378 10375 10372 10369 10366 10363 10359 10356 10352 10349
10476 10479 10482 10486 10489 10493 10496 10500 10503 10504 10504 10506 10509 10511 10511 10509 10508 10507 10504 10501 10501 10501 10500 10498 10496 10494 10493 10491 10490 10491 10492 10491 10490 10490 10491 10490 10488 10486 10485 10484 10482 10481 10481 10479 10477 10474 10472 10469 10466 10464 10462 10460 10458 10455 10453 10450 10447 10445 10441 10438 10434 10431 10428 10424 10421 10417 10413 10409 10404 10399 10394 10389 10385 10381 10376 10373 10370 10367 10364 10361 10358 10355 10351 10348 10345
10467 10471 10475 10479 10482 10486 10490 10493 10494 10495 10497 10499 10501 10501 10501 10500 10500 10498 10495 10493 10493 10492 10490 10489 10489 10487 10484 10483 10483 10484 10484 10483 10482 10482 10481 10480 10479 10478 10477 10476 10475 10475 10473 10471 10469 10467 10464 10462 10459 10457 10455 10453 10451 10448 10445 10442 10439 10437 10433 10430 10426 10423 10420 10417 10413 10410 10406 10402 10397 10393 10388 10384 10380 10376 10371 10368 10365 10362 10359 10357 10353 10350 10346 10343 10340
10460 10464 10468 10472 10476 10479 10481 10482 10484 10487 10490 10491 10491 10491 10491 10492 10491 10489 10486 10484 10483 10482 10482 10481 10479 10476 10475 10476 10477 10477 10476 10475 10474 10474 10473 10471 10471 10470 10470 10468 10468 10467 10465 10463 10461 10459 10457 10454 10451 10449 10447 10446 10444 10441 10438 10434 10432 10429 10425 10422 10418 10416 10413 10410 10406 10403 10399 10395 10391 10386 10382 10379 10375 10370 10366 10363 10360 10357 10354 10352 10348 10345 10341 10338 10335
10454 10459 10462 10466 10469 10471 10472 10474 10476 10479 10481 10482 10480 10479 10481 10483 10482 10479 10476 10475 10475 10474 10474 10471 10468 10466 10467 10469 10469 10468 10467 10467 10466 10466 10465 10464 10463 10463 10462 10461 10459 10458 10457 10455 10453 10451 10448 10446 10443 10442 10440 10438 10436 10433 10430 10427 10424 10421 10417 10414 10411 10408 10405 10402 10399 10396 10393 10389 10384 10380 10376 10372 10369 10365 10361 10357 10354 10351 10349 10346 10343 10340 10337 10333 10330
10448 10452 10455 10457 10459 10460 10462 10465 10467 10469 10471 10472 10471 10470 10472 10474 10472 10469 10468 10468 10468 10466 10463 10460 10459 10460 10461 10461 10459 10458 10458 10459 10459 10459 10458 10457 10456 10455 10454 10453 10451 10450 10448 10447 10445 10443 10440 10437 10435 10434 10432 10430 10427 10424 10421 10418 10416 10412 10409 10406 10403 10400 10398 10395 10392 10389 10385 10382 10377 10373 10369 10366 10362 10358 10355 10352 10349 10346 10343 10341 10338 10335 10331 10328 10325
10440 10443 10445 10447 10449 10451 10452 10455 10458 10460 10462 10463 10462 10461 10462 10464 10463 10461 10460 10459 10458 10455 10453 10452 10453 10453 10453 10452 10451 10450 10450 10451 10451 10451 10450 10449 10448 10447 10446 10445 10443 10441 10440 10438 10437 10434 10431 10428 10426 10424 10423 10421 10419 10416 10413 10410 10407 10404 10400 10397 10394 10392 10389 10387 10384 10381 10378 10374 10370 10367 10363 10359 10355 10352 10348 10345 10343 10340 10337 10335 10332 10329 10326 10323 10319
10430 10432 10433 10436 10439 10441 10442 10445 10447 10450 10452 10453 10453 10452 10452 10453 10453 10453 10451 10449 10447 10446 10446 10446 10445 10445 10444 10443 10443 10442 10442 10442 10442 10441 10440 10440 10439 10438 10438 10436 10435 10433 10431 10430 10428 10425 10422 10419 10417 10415 10414 10412 10410 10407 10404 10401 10399 10395 10392 10388 10385 10383 10381 10379 10376 10374 10371 10368 10364 10360 10356 10352 10348 10345 10342 10339 10336 10333 10331 10329 10326 10323 10320 10317 10313
10420 10422 10423 10426 10428 10430 10431 10433 10436 10439 10441 10443 10442 10442 10442 10443 10444 10444 10443 10441 10440 10438 10438 10437 10436 10435 10435 10435 10435 10434 10434 10434 10433 10432 10431 10430 10429 10429 10428 10427 10426 10424 10422 10421 10419 10416 10414 10410 10408 10407 10405 10403 10401 10399 10396 10393 10390 10387 10383 10379 10376 10374 10372 10370 10368 10366 10363 10360 10356 10352 10348 10344 10341 10338 10335 10332 10330 10327 10325 10322 10320 10317 10314 10311 10308
10409 10412 10414 10416 10418 10419 10420 10422 10426 10429 10430 10431 10431 10431 10432 10433 10434 10434 10434 10433 10431 10430 10429 10428 10427 10426 10426 10426 10426 10426 10425 10425 10424 10423 10422 10421 10420 10419 10418 10417 10416 10415 10414 10413 10411 10408 10405 10402 10399 10397 10396 10394 10392 10390 10387 10384 10381 10378 10374 10371 10368 10366 10364 10361 10359 10357 10354 10351 10347 10343 10340 10336 10333 10330 10328 10325 10323 10320 10318 10316 10313 10311 10308 10305 10302
10398 10401 10403 10406 10407 10408 10409 10411 10414 10417 10419 10419 10420 10420 10422 10423 10423 10424 10424 10423 10422 10421 10420 10419 10418 10417 10417 10416 10416 10416 10416 10416 10415 10413 10412 10411 10411 10410 10409 10407 10406 10406 10405 10404 10402 10400 10397 10393 10390 10388 10386 10384 10383 10381 10377 10374 10371 10369 10365 10362 10359 10357 10355 10352 10350 10348 10346 10342 10339 10336 10332 10329 10326 10323 10320 10318 10316 10314 10311 10309 10307 10304 10301 10298 10296
10387 10390 10392 10394 10396 10398 10398 10399 10402 10405 10407 10407 10408 10410 10411 10412 10412 10412 10412 10412 10412 10411 10411 10410 10408 10407 10406 10406 10406 10406 10406 10405 10404 10403 10402 10401 10401 10400 10399 10397 10395 10395 10395 10394 10393 10391 10388 10385 10381 10379 10376 10374 10372 10371 10368 10365 10362 10359 10357 10354 10351 10348 10345 10344 10342 10340 10338 10334 10331 10328 10324 10321 10318 10316 10313 10311 10309 10307 10305 10302 10300 10298 10295 10292 10289
10377 10379 10382 10384 10386 10387 10388 10389 10391 10393 10394 10395 10397 10398 10399 10400 10400 10400 10400 10400 10401 10401 10400 10398 10397 10396 10396 10396 10396 10396 10395 10395 10394 10392 10391 10391 10390 10389 10388 10386 10384 10382 10382 10382 10382 10381 10379 10376 10373 10370 10367 10365 10362 10360 10358 10356 10353 10350 10348 10345 10342 10339 10336 10334 10333 10331 10329 10326 10323 10320 10316 10313 10311 10308 10306 10304 10302 10300 10298 10295 10293 10291 10288 10285 10282
10368 10370 10372 10374 10376 10377 10378 10379 10381 10382 10383 10384 10385 10387 10388 10388 10388 10389 10389 10390 10390 10390 10388 10386 10385 10386 10387 10387 10386 10385 10384 10384 10383 10382 10381 10380 10379 10378 10377 10376 10374 10372 10370 10369 10368 10368 10367 10366 10363 10360 10358 10355 10352 10350 10347 10346 10343 10341 10338 10336 10333 10330 10327 10325 10324 10322 10319 10317 10314 10311 10308 10305 10303 10301 10299 10296 10294 10292 10290 10288 10286 10283 10280 10278 10275
10358 10360 10362 10364 10365 10367 10368 10369 10370 10371 10372 10373 10374 10375 10376 10377 10377 10377 10378 10378 10378 10377 10376 10375 10375 10375 10375 10375 10375 10373 10373 10372 10372 10371 10370 10370 10369 10367 10366 10365 10364 10363 10361 10359 10357 10356 10355 10354 10352 10349 10347 10344 10342 10339 10337 10335 10333 10330 10328 10326 10323 10320 10318 10316 10314 10312 10310 10308 10306 10303 10299 10297 10294 10292 10290 10288 10286 10284 10282 10280 10278 10275 10273 10270 10268